Погода в Знаменском

Россия / Орловская область     53°18′22″N   36°02′35″E
темп.,
°C
ветер,
м/с
пор.,
м/с
влажн.,
%
обл.,
%
осадки,
мм/ч
давл.,
гПа
погр.,
м
4 марта, чт
чт400:000з51188100 0.0 1015443
03:00−2зюз7139188 0.0 1014356
06:00−2зюз7158953 0.0 1011375
09:00−2зюз8168539 0.0 1008581
12:000зюз6128860 0.0 1006783
15:00+1зюз5109580 0.0 1004618
18:00+1з3993100 0.0 1003442
21:00−1зсз41096100 0.1 1003627
5 марта, пт
пт500:00−2зсз4896100 0.1 1004304
03:00−4с239399 0.1 100529
06:00−4ссз229199 0.0 100730
09:00−4сз249398 0.0 1008119
12:00−2ссз23845 0.0 1009370
15:00−1ссв127611 0.0 1011590
18:00−4ссв228693 0.1 101221
21:00−6ссв228895 0.1 101421
6 марта, сб
сб600:00−8ссв128648 0.0 101521
03:00−8всв118824 0.0 101621
06:00−9ю11871 0.0 101521
09:00−7ю229030 0.0 101664
12:00−4юз2286100 0.0 1016342
15:00−3зюз1188100 0.2 1017335
18:00−5ссз8129299 0.8 1017598
21:00−9сз338773 0.9 101956
7 марта, вс
вс700:00−9зюз46870 0.0 1019117
03:00−8юз613840 0.0 1016364
06:00−6юз8167667 0.0 1013637
09:00−5юз10187583 0.0 1008969
12:00−3зюз121991100 0.4 10041223
15:00−2зюз122090100 1.1 10001417
18:00−1зюз111895100 1.0 10001104
21:00−4з51485100 3.5 10021220
8 марта, пн
пн800:00−7зюз5128952 0.0 1002300
03:00−7з6158450 0.0 1003680
06:00−9з5138673 0.0 1004478
09:00−8зсз5108469 0.1 1007981
12:00−7сз468083 0.1 10091019
15:00−7сз477591 0.1 10101181
18:00−8ссз2386100 0.1 101265
21:00−10зсз3387100 0.1 101446